Taurus 1
1 44530U 19059C   25050.74085686  .00015211  00000-0  29672-2 0  9994
2 44530  98.5914 185.2185 0009072  11.9016 348.2397 14.63039710287861
Duchifat 3
1 44854U 19089C   25050.47064921  .00059792  00000-0  17333-2 0  9998
2 44854  36.9495 329.3121 0008716 337.7225  22.3148 15.34472639286027
TO-108
1 44881U 19093C   25050.75932261  .00002558  00000-0  30462-3 0  9992
2 44881  97.8022 128.6918 0012955 228.3686 131.6420 14.85156238279779
FloripaSat 1
1 44885U 19093G   25050.76780944  .00011900  00000-0  10568-2 0  9991
2 44885  97.8195 138.2951 0010993 209.6845 150.3753 14.96256582280311
RS-44
1 44909U 19096E   25050.63232857  .00000007  00000-0 -16558-4 0  9996
2 44909  82.5218 300.3502 0217121 192.4030 167.1678 12.79738400240621
UPMSat 2
1 46276U 20061E   25050.74944289  .00053084  00000-0  83824-3 0  9991
2 46276  97.2607 122.6319 0000240 223.4772 136.6463 15.53339394248339
SALSAT
1 46495U 20068K   25050.46287187  .00017159  00000-0  79751-3 0  9994
2 46495  97.8497  23.6874 0012276 173.3028 186.8373 15.19991596241789
CubeSX-Sirius-HSE
1 47951U 21022V   25050.79470944  .00088634  00000-0  13890-2 0  9991
2 47951  97.4326 318.2602 0007055   0.6584 359.4677 15.53380935216609
CubeSX-HSE
1 47952U 21022W   25050.83769798  .00097268  00000-0  14947-2 0  9992
2 47952  97.4324 318.4877 0006627 354.9329   5.1857 15.53894728216627
KSU-Cubesat
1 47954U 21022Y   25050.71922855  .00313679  00000-0  20275-2 0  9994
2 47954  97.4289 322.5801 0003518  46.8126 313.3432 15.75187569216591
GRBAlpha
1 47959U 21022AD  25050.73553523  .00096507  00000-0  14927-2 0  9998
2 47959  97.4311 318.5394 0006961   0.3132 359.8125 15.53715018215439
Orbicraft-Zorkiy
1 47960U 21022AE  25050.82814260  .00170765  00000-0  17047-2 0  9993
2 47960  97.4303 321.7915 0004399  10.7360 349.3993 15.65072980216310
TUBIN
1 48900U 21059X   25050.72980625  .00052416  00000-0  98912-3 0  9999
2 48900  97.6674 212.0859 0005183 284.0354  76.0319 15.48289909202973
LEDSAT
1 49069U 21073D   25050.76188325  .00056841  00000-0  11974-2 0  9991
2 49069  97.4025 128.9674 0012886 120.7248 239.5272 15.44987389194397
CUTE
1 49263U 21088D   25050.73470449  .00063818  00000-0  15021-2 0  9990
2 49263  97.4632 124.1637 0008327 281.1196  78.9114 15.41700350187472
TeikyoSat 4
1 49396U 21102B   25050.61585547  .00003752  00000-0  25539-3 0  9994
2 49396  97.4267  92.9714 0013639 145.1170 215.0954 15.06808746179986
Z-Sat
1 49399U 21102E   25050.75411362  .00007829  00000-0  44708-3 0  9993
2 49399  97.3975  95.5734 0020030 122.5857 237.7312 15.12816868180363
KOSEN 1
1 49402U 21102H   25050.67632841  .00013626  00000-0  67322-3 0  9995
2 49402  97.3889  98.1440 0018087 102.6850 257.6408 15.17829811180607
HO-113
1 50466U 21131B   25050.89019008  .00001290  00000-0  41892-3 0  9995
2 50466  98.5125 140.8061 0005231 105.0959 255.0809 14.40548765165659
IRIS-A
1 51044U 22002BN  25050.67357909  .00103428  00000-0  13295-2 0  9998
2 51044  97.3433 125.8165 0004146 220.9718 139.1227 15.58732544172578
Foresail-1
1 52766U 22057AL  25050.64120877  .00091123  00000-0  11967-2 0  9991
2 52766  97.5986 192.4735 0006501 311.0914  48.9779 15.58189995152602
SNUGLITE 2
1 52899U 22065F   25050.37560632  .00003723  00000-0  74070-3 0  9998
2 52899  98.1486 193.5740 0008602  99.1609 261.0566 14.62647876140372
IO-117
1 53106U 22080B   25042.50223640 -.00000003  00000-0  00000-0 0  9996
2 53106  70.1392 109.3763 0008154  50.6584 309.4797  6.42557620 60646
FO-118
1 54684U 22167C   25050.82899477  .00562683  12329-3  19237-2 0  9995
2 54684  97.6082 214.9354 0009574 300.6714  59.3613 15.89643304122628
SO-120
1 56992U 23084BU  25042.76759540  .17342116  26494-5  33638-3 0  9995
2 56992  97.5047 178.6720 0014759 276.3055  83.6566 16.46134597 93271
UmKA 1 (RS40S)
1 57172U 23091G   25050.85972317  .00009844  00000-0  55625-3 0  9992
2 57172  97.5756 106.8707 0014859 358.6804   1.4385 15.13213682 90870
CubeBel-2 (EU11S)
1 57175U 23091K   25050.87228361  .00015073  00000-0  78523-3 0  9993
2 57175  97.5758 107.4565 0013048   9.0930 351.0536 15.16020964 90919
VERONIKA
1 58261U 23174F   25050.74680477  .00075348  00000-0  15719-2 0  9996
2 58261  97.4267 132.5390 0006936  84.5208 275.6832 15.45256439 71592
KAFASAT
1 58317U 23174BP  25050.76221285  .00222179  00000-0  21382-2 0  9997
2 58317  97.4147 135.9656 0002940   6.3263 353.8034 15.65840754 71849
ENSO
1 58470U 23185J   25050.83429348  .00046558  00000-0  10788-2 0  9990
2 58470  97.3888 123.4699 0009024 117.9537 242.2625 15.42247148 68040
EIRSAT-1
1 58472U 23185L   25050.84064660  .00063617  00000-0  12803-2 0  9990
2 58472  97.3883 124.1831 0007832 118.4722 241.7317 15.46353700 68093
SONATE-2
1 59112U 24043Q   25050.33158952  .00034119  00000-0  11672-2 0  9996
2 59112  97.4970 179.8377 0012268 144.6852 215.5203 15.30105464 53440
MO-122
1 60209U 24125G   25050.56317197  .00027966  00000-0  94530-3 0  9996
2 60209  97.2939 263.7165 0021156 168.0484 192.1263 15.30388416 35094
GRBBeta
1 60237U 24128C   25050.61775756  .00007445  00000-0  58658-3 0  9996
2 60237  61.9920 102.5288 0041190  31.9774 328.3802 15.00921701 33681
Curium One
1 60242U 24128H   25050.46695502  .00014888  00000-0  11154-2 0  9993
2 60242  61.9820 102.6574 0041504  26.3644 333.9546 15.02244013 33670
ROBUSTA-3A
1 60243U 24128J   25050.57268973  .00012271  00000-0  93285-3 0  9994
2 60243  61.9889 102.7836 0039781  24.4687 335.8280 15.01877181 33682
CatSat
1 60246U 24125J   25050.15067735  .00015812  00000-0  57761-3 0  9994
2 60246  97.2730 263.6047 0046670 125.7865 234.7727 15.27134927 33114
HYPERVIEW-1G (RS66S)
1 61772U 24199AP  25050.85613567  .00029740  00000-0  10521-2 0  9994
2 61772  97.3720 280.2905 0014274 221.5369 138.4788 15.29014606 60150
AO-123
1 61781U 24199AY  25050.77356342  .00014439  00000-0  56429-3 0  9997
2 61781  97.3728 279.9555 0015418 223.2247 136.7782 15.25860871 60120
POEM 4 (BGS ARPIT)
1 62461U 24253C   25050.74756989  .00189818  00000-0  80680-3 0  9992
2 62461  55.2202  12.2081 0012056  69.0146 291.2194 15.84188699  8040
